Location: Valdosta
(30.8330°N, 83.2790°W)
Time: 23:34:57
(UTC-04:00)

Daily predictions for brighter satellites

Satellite Brightness Start Highest point End
(mag) Time Altitude Azimuth Time Altitude Azimuth Time Altitude Azimuth
Cosmos 2227 4.3 20:27:31 10° NNW 20:33:12 62° ENE 20:38:48 10° SSE
Cosmos 1486 Rocket 4.1 20:28:02 10° N 20:33:15 66° ENE 20:38:28 10° SSE
FENGYUN 3A 3.6 20:32:01 10° SSE 20:37:20 76° ENE 20:42:41 10° N
USA 267 4.2 20:39:56 10° NNE 20:46:15 52° NW 20:52:32 10° WSW
Cosmos 1862 Rocket 4.4 20:42:31 10° SSE 20:46:22 29° E 20:50:14 10° NNE
Nadezhda 4 Rocket 4.3 20:41:33 10° N 20:47:50 75° W 20:54:08 10° S
Cosmos 1634 Rocket 4.1 20:49:31 10° S 20:55:49 90° NNE 21:02:10 10° N
Cosmos 1869 Rocket 4.1 20:52:38 10° NNW 20:57:04 64° W 21:01:27 10° S
Spot 2 Rocket 3.5 20:55:05 10° SSE 21:00:07 67° ENE 21:05:10 10° N
Cosmos 2263 Rocket 3.0 20:56:27 10° N 21:01:25 32° ENE 21:05:10 16° ESE
Cosmos 1092 Rocket 4.2 20:55:19 10° N 21:01:40 83° W 21:08:00 10° S
Intelsat 5-1 Rocket 3.0 20:59:19 10° SW 21:01:44 16° S 21:02:44 14° SSE
USA 186 2.0 21:02:56 19° SE 21:04:30 37° ENE 21:07:13 10° N
Cosmos 1939 Rocket 4.4 21:03:23 16° E 21:04:53 19° ENE 21:07:45 10° NNE
Cosmos 1503 Rocket 4.0 21:00:22 10° N 21:05:34 65° ENE 21:10:37 10° SSE
Resurs 1-3 3.5 21:01:44 10° SSE 21:06:06 74° ENE 21:10:28 10° N
Cosmos 2322 Rocket 3.2 21:02:14 10° SW 21:07:38 50° WNW 21:13:06 10° N
Meteor 2-20 4.5 21:04:44 10° N 21:10:53 88° W 21:17:02 10° S
Cosmos 1354 Rocket 3.9 21:06:51 10° NNW 21:12:07 78° ENE 21:17:10 11° SSE
Atlas Centaur 2 2.6 21:06:20 10° W 21:12:33 83° S 21:19:23 14° E
H-2A R/B 3.6 21:11:07 10° S 21:14:55 51° W 21:18:41 10° NNW
Cosmos 2360 Rocket 2.1 21:09:43 10° S 21:15:17 66° ESE 21:20:54 10° NNE
Cosmos 220 Rocket 4.2 21:12:30 10° NNW 21:16:57 77° WSW 21:21:17 10° S
COSMOS 2428 3.6 21:12:56 10° SSE 21:17:35 27° ESE 21:22:16 10° NE
Intercosmos 25 Rocket 3.2 21:15:46 10° SSW 21:18:53 69° W 21:22:36 10° N
Cosmos 1825 2.1 21:16:20 10° N 21:20:08 85° E 21:23:25 13° S
Envisat 3.4 21:17:09 20° SE 21:20:21 43° ENE 21:25:08 10° N
CZ-4B DEB 3.6 21:22:33 29° ENE 21:22:36 29° ENE 21:25:16 10° NNE
Chunghua 1 4.4 21:19:31 10° WSW 21:23:14 87° NNW 21:25:30 22° ENE
Cosmos 1655 Rocket 4.0 21:17:38 10° N 21:24:00 68° E 21:30:04 11° SSE
Meteor 1-29 2.8 21:22:22 10° NNE 21:25:49 63° ESE 21:28:29 15° S
Lacrosse 4 Rocket 1.7 21:23:58 10° NNW 21:28:19 69° WSW 21:31:26 19° SSE
Cosmos 1408 2.9 21:25:09 10° NNW 21:28:48 66° W 21:31:52 13° S
Helios 1B rocket 2.4 21:25:30 10° N 21:29:36 86° WNW 21:33:42 10° SSW
Milstar 3 3.0 21:21:14 10° W 21:29:55 64° SSW 21:33:52 26° ESE
Cosmos 2279 Rocket 4.1 21:26:00 10° S 21:32:13 79° W 21:38:28 10° N
ATLAS 5 CENTAUR R/B 3.1 21:26:58 10° NNW 21:32:45 41° ENE 21:35:40 27° ESE
Cosmos 2322 3.6 21:27:17 10° SSW 21:32:58 81° ESE 21:38:42 10° NNE
SEDSat Delta rocket 3.4 21:29:50 10° W 21:34:51 84° N 21:37:59 27° E
ERBS 4.5 21:35:38 10° WNW 21:38:23 22° WSW 21:40:15 15° SSW
SL-16 R/B 4.4 21:33:46 10° WSW 21:38:31 27° WNW 21:43:18 10° N
ERS-1 Rocket 3.8 21:42:02 30° E 21:42:44 32° ENE 21:47:09 10° N
CZ-3 Stage 3 4.3 21:19:41 10° WNW 21:45:15 34° SW 21:50:35 15° S
Sakura Rocket 2.7 21:42:13 10° WSW 21:45:53 61° S 21:46:24 55° SE
Resurs 01 Rocket 3.5 21:43:15 10° SSW 21:47:06 29° W 21:50:58 10° NW
Centaur AC-42 3.6 21:29:32 10° W 21:50:53 41° SSW 21:53:32 29° SSE
Cosmos 1428 Rocket 4.4 21:44:50 10° N 21:50:57 84° W 21:55:34 19° S
Cosmos 2333 4.2 21:52:02 25° S 21:55:12 54° ESE 22:00:48 10° NNE
NOSS 3-1 (C) 3.4 21:54:39 40° SE 21:55:44 45° ESE 22:01:27 10° NE
Cosmos 2333 Rocket 3.9 22:00:04 17° ENE 22:00:04 17° ENE 22:01:43 10° NE
YAOGAN 6 3.5 21:58:12 38° NNE 21:58:12 38° NNE 22:00:49 10° N
SPOT 5 4.4 21:59:59 21° NE 21:59:59 21° NE 22:02:38 10° NNE
USA 229 DEB 4.2 21:55:04 10° SW 22:01:46 62° WNW 22:08:37 10° NNE
USA 229 4.1 21:55:11 10° SW 22:01:53 62° WNW 22:08:43 10° NNE
Cosmos 1844 Rocket 4.1 21:58:36 10° NNE 22:02:44 22° ENE 22:02:44 22° ENE
Cosmos 1908 Rocket 3.4 21:58:34 10° N 22:02:54 73° E 22:02:59 73° E
OAO 3 Rocket 3.1 22:02:09 10° WNW 22:07:03 80° NNE 22:07:39 67° E
Sich 1 Rocket 3.5 22:04:51 10° N 22:09:22 88° E 22:09:37 80° SSE
Meteor 2-10 Rocket 4.5 22:06:12 10° SSW 22:11:52 54° W 22:17:32 10° N
Cosmos 1782 Rocket 4.3 22:13:13 10° N 22:16:24 43° NNE 22:16:24 43° NNE
Cosmos 2219 Rocket 2.8 22:20:01 40° NE 22:20:01 40° NE 22:23:50 10° NNE
Okean 1-7 3.4 22:21:00 60° N 22:21:00 60° N 22:24:39 10° N
Okean 2 Rocket 4.3 22:28:11 10° N 22:30:55 35° NNE 22:30:55 35° NNE
Terra 4.2 22:45:02 12° NNE 22:45:02 12° NNE 22:45:41 10° NNE
Nimbus 7 Rocket 4.4 22:38:02 10° NNE 22:43:21 70° NE 22:43:21 70° NE
Cosmos 2263 Rocket 3.9 22:40:37 10° NW 22:45:06 25° WSW 22:46:54 21° SW
Cosmos 968 Rocket 4.4 22:44:07 10° NNW 22:48:58 40° W 22:49:07 40° WSW
USA 234 3.1 22:59:28 82° NNE 22:59:28 82° NNE 23:05:52 10° NW
COSMOS 2428 4.3 22:56:37 10° SW 23:01:39 32° WNW 23:06:42 10° N
Atlas Centaur 2 2.8 22:55:11 10° W 23:02:01 80° SW 23:02:01 80° SW
H-2A R/B 3.5 23:09:09 29° N 23:09:09 29° N 23:11:36 10° N
MOS 1-B Rocket 4.3 23:09:35 60° NW 23:09:35 60° NW 23:14:11 10° NNW
ATLAS 5 CENTAUR R/B 3.8 23:11:57 10° NW 23:17:15 30° WSW 23:17:15 30° WSW
ARGOS 4.3 23:19:00 40° NW 23:19:00 40° NW 23:22:39 10° NNW
SeaSat 1 4.2 23:24:45 28° NNW 23:24:45 28° NNW 23:27:04 10° NNW
Cosmos 2237 Rocket 3.9 23:40:20 29° N 23:40:20 29° N 23:43:11 10° N
Cosmos 2333 Rocket 3.8 23:41:58 32° NW 23:41:58 32° NW 23:46:15 10° N
Cosmos 1844 Rocket 4.5 23:41:39 10° NW 23:44:25 26° WNW 23:44:25 26° WNW
Cosmos 2278 Rocket 3.9 23:42:57 10° NNW 23:45:29 28° NNW 23:45:29 28° NNW
